Weather History for KBUY - March, 2014

Change the Weather History Date:

Tuesday, March 4, 2014

  Actual Average Record
Temperature  
Mean Temperature 25 °F -  
Max Temperature 35 °F 59 °F - (-1)
Min Temperature 15 °F 36 °F - (-1)
Degree Days  
Heating Degree Days 40    
Moisture  
Dew Point 10 °F    
Average Humidity 53    
Maximum Humidity 74    
Minimum Humidity 37    
Precipitation  
Precipitation 0.00 in - - ()
Sea Level Pressure  
Sea Level Pressure 30.29 in    
Wind  
Wind Speed 8 mph (NNE)    
Max Wind Speed 10 mph    
Max Gust Speed 21 mph    
Visibility 10 miles    
Events      
Averages and records for this station are not official NWS values.
T = Trace of Precipitation, MM = Missing Value Source: NWS Daily Summary

Daily Weather History Graph

Daily Weather History Graph

Search for Another Location

Airport or City:

Trip Planner

Search our weather history database for the weather conditions in past years. The results will help you decide how hot, cold, wet, or windy it might be!

Date:

Astronomy

Mar. 04, 2014 Rise Set
Actual Time 6:44 AM EST 6:15 PM EST
Civil Twilight 6:18 AM EST 6:41 PM EST
Nautical Twilight 5:48 AM EST 7:10 PM EST
Astronomical Twilight 5:19 AM EST 7:40 PM EST
Moon 8:36 AM EST (3/4) 10:12 PM EST (3/4)
Length of Visible Light 12h 22m
Length of Day
11h 31m
Waxing Crescent, 14% of the Moon is Illuminated
Mar 4
Waxing Crescent
Mar 8
First Quarter
Mar 16
Full
Mar 23
Last Quarter
Mar 30
New

Hourly Weather History & Observations

Time (EST) Temp. Windchill Dew Point Humidity Pressure Visibility Wind Dir Wind Speed Gust Speed Precip Events Conditions
12:54 AM 19.0 °F 7.5 °F 12.0 °F 74% 30.30 in 10.0 mi NNE 10.4 mph - N/A   Clear
1:54 AM 18.0 °F 6.9 °F 10.9 °F 74% 30.31 in 10.0 mi NNE 9.2 mph - N/A   Clear
2:54 AM 17.1 °F 5.0 °F 8.1 °F 68% 30.30 in 10.0 mi NNE 10.4 mph - N/A   Clear
3:54 AM 16.0 °F 6.3 °F 7.0 °F 68% 30.31 in 10.0 mi North 6.9 mph - N/A   Clear
4:54 AM 15.1 °F 5.2 °F 7.0 °F 70% 30.32 in 10.0 mi NNE 6.9 mph - N/A   Clear
5:54 AM 15.1 °F 4.2 °F 6.1 °F 68% 30.34 in 10.0 mi NNE 8.1 mph - N/A   Clear
6:54 AM 15.1 °F 3.3 °F 6.1 °F 68% 30.35 in 10.0 mi North 9.2 mph - N/A   Clear
7:54 AM 18.0 °F 7.7 °F 7.0 °F 62% 30.38 in 10.0 mi NNE 8.1 mph - N/A   Clear
8:54 AM 21.0 °F 10.6 °F 6.1 °F 53% 30.38 in 10.0 mi NE 9.2 mph 20.7 mph N/A   Clear
9:54 AM 24.1 °F 13.7 °F 9.0 °F 53% 30.37 in 10.0 mi NNE 10.4 mph 19.6 mph N/A   Clear
10:54 AM 27.0 °F 17.3 °F 10.0 °F 49% 30.35 in 10.0 mi North 10.4 mph 17.3 mph N/A   Clear
11:54 AM 28.9 °F 21.1 °F 12.0 °F 49% 30.34 in 10.0 mi North 8.1 mph - N/A   Clear
12:54 PM 32.0 °F 28.7 °F 12.9 °F 45% 30.29 in 10.0 mi Variable 3.5 mph - N/A   Clear
1:54 PM 34.0 °F 28.0 °F 12.9 °F 42% 30.26 in 10.0 mi NE 6.9 mph - N/A   Clear
2:54 PM 35.1 °F 29.3 °F 12.9 °F 40% 30.25 in 10.0 mi North 6.9 mph - N/A   Clear
3:54 PM 35.1 °F 28.6 °F 12.0 °F 39% 30.23 in 10.0 mi NNE 8.1 mph - N/A   Clear
4:54 PM 34.0 °F 28.0 °F 10.0 °F 37% 30.23 in 10.0 mi NNE 6.9 mph - N/A   Clear
5:54 PM 32.0 °F 25.6 °F 12.0 °F 44% 30.23 in 10.0 mi North 6.9 mph - N/A   Clear
6:54 PM 30.9 °F 26.2 °F 10.9 °F 43% 30.26 in 10.0 mi North 4.6 mph - N/A   Clear
7:54 PM 30.9 °F 26.2 °F 12.9 °F 47% 30.26 in 10.0 mi North 4.6 mph - N/A   Clear
8:54 PM 30.0 °F 25.2 °F 12.0 °F 47% 30.24 in 10.0 mi NNE 4.6 mph - N/A   Clear
9:54 PM 30.0 °F 24.1 °F 12.0 °F 47% 30.23 in 10.0 mi North 5.8 mph - N/A   Clear
10:54 PM 30.0 °F 26.5 °F 12.0 °F 47% 30.22 in 10.0 mi North 3.5 mph - N/A   Clear
11:54 PM 30.0 °F - 12.0 °F 47% 30.22 in 10.0 mi Calm Calm - N/A   Clear